Time,TemperatureF,DewpointF,PressureIn,WindDirection,WindDirectionDegrees,WindSpeedMPH,WindSpeedGustMPH,Humidity,HourlyPrecipIn,Conditions,Clouds,dailyrainin,SoftwareType,DateUTC
2013-02-20 00:01:00,4.2,-1.0,29.84,ENE,77,0.0,-999.0,79,-99.99,,,0.00,weatherlink.com 1.10,2013-02-20 07:01:00,
2013-02-20 00:23:00,4.1,-1.0,29.83,ENE,77,0.0,-999.0,79,-99.99,,,0.00,weatherlink.com 1.10,2013-02-20 07:23:00,
2013-02-20 00:30:00,4.0,-1.0,29.83,ENE,76,0.0,-999.0,78,-99.99,,,0.00,weatherlink.com 1.10,2013-02-20 07:30:00,
2013-02-20 00:46:00,3.9,-1.0,29.83,ENE,77,0.0,-999.0,79,-99.99,,,0.00,weatherlink.com 1.10,2013-02-20 07:46:00,
2013-02-20 00:59:00,3.9,-1.0,29.83,ENE,77,0.0,-999.0,80,-99.99,,,0.00,weatherlink.com 1.10,2013-02-20 07:59:00,
2013-02-20 01:14:00,4.1,-1.0,29.82,ENE,77,0.0,-999.0,79,-99.99,,,0.00,weatherlink.com 1.10,2013-02-20 08:14:00,
2013-02-20 01:28:00,3.6,-2.0,29.82,ENE,77,0.0,-999.0,79,-99.99,,,0.00,weatherlink.com 1.10,2013-02-20 08:28:00,
2013-02-20 01:46:00,3.4,-1.0,29.82,ENE,77,0.0,-999.0,81,-99.99,,,0.00,weatherlink.com 1.10,2013-02-20 08:46:00,
2013-02-20 02:01:00,3.6,-1.0,29.81,ENE,77,0.0,-999.0,81,-99.99,,,0.00,weatherlink.com 1.10,2013-02-20 09:01:00,
2013-02-20 02:15:00,3.8,-1.0,29.81,ENE,77,0.0,-999.0,81,-99.99,,,0.00,weatherlink.com 1.10,2013-02-20 09:15:00,
2013-02-20 02:30:00,4.0,-1.0,29.80,ENE,77,0.0,-999.0,81,-99.99,,,0.00,weatherlink.com 1.10,2013-02-20 09:30:00,
2013-02-20 02:48:00,4.2,0.0,29.79,ENE,77,0.0,-999.0,81,-99.99,,,0.00,weatherlink.com 1.10,2013-02-20 09:48:00,
2013-02-20 03:00:00,4.2,0.0,29.78,ENE,76,0.0,-999.0,82,-99.99,,,0.00,weatherlink.com 1.10,2013-02-20 10:00:00,
2013-02-20 03:13:00,4.4,0.0,29.78,ENE,77,0.0,-999.0,81,-99.99,,,0.00,weatherlink.com 1.10,2013-02-20 10:13:00,
2013-02-20 03:31:00,4.8,1.0,29.77,ENE,77,0.0,-999.0,82,-99.99,,,0.00,weatherlink.com 1.10,2013-02-20 10:31:00,
2013-02-20 03:45:00,4.9,0.0,29.78,ENE,77,0.0,-999.0,81,-99.99,,,0.00,weatherlink.com 1.10,2013-02-20 10:45:00,
2013-02-20 03:59:00,5.0,0.0,29.79,ENE,76,0.0,-999.0,81,-99.99,,,0.00,weatherlink.com 1.10,2013-02-20 10:59:00,
2013-02-20 04:13:00,5.1,1.0,29.78,ENE,77,0.0,-999.0,81,-99.99,,,0.00,weatherlink.com 1.10,2013-02-20 11:13:00,
2013-02-20 04:28:00,5.1,1.0,29.78,ENE,76,0.0,-999.0,81,-99.99,,,0.00,weatherlink.com 1.10,2013-02-20 11:28:00,
2013-02-20 04:43:00,5.0,0.0,29.78,ENE,77,0.0,-999.0,81,-99.99,,,0.00,weatherlink.com 1.10,2013-02-20 11:43:00,
2013-02-20 05:00:00,5.0,0.0,29.78,ENE,77,0.0,-999.0,81,-99.99,,,0.00,weatherlink.com 1.10,2013-02-20 12:00:00,
2013-02-20 05:15:00,4.8,0.0,29.78,ENE,76,0.0,-999.0,80,-99.99,,,0.00,weatherlink.com 1.10,2013-02-20 12:15:00,
2013-02-20 05:29:00,4.3,0.0,29.77,ENE,77,0.0,-999.0,81,-99.99,,,0.00,weatherlink.com 1.10,2013-02-20 12:29:00,
2013-02-20 05:43:00,3.7,-1.0,29.77,ENE,76,0.0,-999.0,81,-99.99,,,0.00,weatherlink.com 1.10,2013-02-20 12:43:00,
2013-02-20 05:58:00,3.0,-2.0,29.77,ENE,77,0.0,-999.0,81,-99.99,,,0.00,weatherlink.com 1.10,2013-02-20 12:58:00,
2013-02-20 06:16:00,2.1,-2.0,29.76,ENE,76,0.0,-999.0,82,-99.99,,,0.00,weatherlink.com 1.10,2013-02-20 13:16:00,
2013-02-20 06:30:00,1.5,-3.0,29.76,ENE,76,0.0,-999.0,83,-99.99,,,0.00,weatherlink.com 1.10,2013-02-20 13:30:00,
2013-02-20 06:44:00,1.7,-2.0,29.76,ENE,77,0.0,-999.0,85,-99.99,,,0.00,weatherlink.com 1.10,2013-02-20 13:44:00,
2013-02-20 06:58:00,1.7,-2.0,29.77,ENE,77,0.0,-999.0,85,-99.99,,,0.00,weatherlink.com 1.10,2013-02-20 13:58:00,
2013-02-20 07:14:00,1.7,-2.0,29.77,ENE,77,0.0,-999.0,85,-99.99,,,0.00,weatherlink.com 1.10,2013-02-20 14:14:00,
2013-02-20 07:28:00,1.8,-1.0,29.77,ENE,77,0.0,-999.0,86,-99.99,,,0.00,weatherlink.com 1.10,2013-02-20 14:28:00,
2013-02-20 07:48:00,3.3,0.0,29.76,ENE,77,0.0,-999.0,87,-99.99,,,0.00,weatherlink.com 1.10,2013-02-20 14:48:00,
2013-02-20 08:00:00,4.3,2.0,29.76,ENE,77,0.0,-999.0,88,-99.99,,,0.00,weatherlink.com 1.10,2013-02-20 15:00:00,
2013-02-20 08:14:00,6.0,3.0,29.76,ENE,77,0.0,-999.0,87,-99.99,,,0.00,weatherlink.com 1.10,2013-02-20 15:14:00,
2013-02-20 08:30:00,8.0,4.0,29.75,ENE,77,0.0,-999.0,85,-99.99,,,0.00,weatherlink.com 1.10,2013-02-20 15:30:00,
2013-02-20 08:43:00,9.8,6.0,29.75,ENE,77,0.0,-999.0,84,-99.99,,,0.00,weatherlink.com 1.10,2013-02-20 15:43:00,
2013-02-20 08:59:00,11.8,7.0,29.74,ENE,77,0.0,-999.0,81,-99.99,,,0.00,weatherlink.com 1.10,2013-02-20 15:59:00,
2013-02-20 09:13:00,13.1,7.0,29.74,ENE,77,0.0,-999.0,78,-99.99,,,0.00,weatherlink.com 1.10,2013-02-20 16:13:00,
2013-02-20 09:33:00,15.6,9.0,29.75,ENE,76,0.0,-999.0,76,-99.99,,,0.00,weatherlink.com 1.10,2013-02-20 16:33:00,
2013-02-20 09:43:00,16.9,13.0,29.75,SSW,203,0.0,-999.0,84,-99.99,,,0.00,weatherlink.com 1.10,2013-02-20 16:43:00,
2013-02-20 10:01:00,18.5,15.0,29.74,SSW,206,0.0,-999.0,85,-99.99,,,0.00,weatherlink.com 1.10,2013-02-20 17:01:00,
2013-02-20 10:13:00,18.7,14.0,29.73,SSW,206,0.0,-999.0,83,-99.99,,,0.00,weatherlink.com 1.10,2013-02-20 17:13:00,
2013-02-20 10:29:00,19.0,14.0,29.72,SSW,207,0.0,-999.0,81,-99.99,,,0.00,weatherlink.com 1.10,2013-02-20 17:29:00,
2013-02-20 10:45:00,19.5,14.0,29.72,SSW,207,0.0,-999.0,78,-99.99,,,0.00,weatherlink.com 1.10,2013-02-20 17:45:00,
2013-02-20 10:59:00,19.5,14.0,29.71,SSW,209,0.0,-999.0,80,-99.99,,,0.00,weatherlink.com 1.10,2013-02-20 17:59:00,
2013-02-20 11:14:00,19.5,15.0,29.70,SSW,209,0.0,-999.0,83,-99.99,,,0.00,weatherlink.com 1.10,2013-02-20 18:14:00,
2013-02-20 11:30:00,20.0,15.0,29.70,SSW,209,0.0,-999.0,82,-99.99,,,0.00,weatherlink.com 1.10,2013-02-20 18:30:00,
2013-02-20 11:44:00,20.8,16.0,29.69,SSW,209,0.0,-999.0,83,-99.99,,,0.00,weatherlink.com 1.10,2013-02-20 18:44:00,
2013-02-20 11:58:00,21.7,17.0,29.68,SSW,209,0.0,-999.0,82,-99.99,,,0.00,weatherlink.com 1.10,2013-02-20 18:58:00,
2013-02-20 12:13:00,22.0,18.0,29.68,SSW,209,0.0,-999.0,83,-99.99,,,0.00,weatherlink.com 1.10,2013-02-20 19:13:00,
2013-02-20 12:30:00,22.8,18.0,29.67,SSW,209,0.0,-999.0,82,-99.99,,,0.00,weatherlink.com 1.10,2013-02-20 19:30:00,
2013-02-20 12:44:00,22.2,18.0,29.66,SSE,164,0.0,-999.0,82,-99.99,,,0.00,weatherlink.com 1.10,2013-02-20 19:44:00,
2013-02-20 13:06:00,21.5,17.0,29.66,NNE,21,0.0,-999.0,84,-99.99,,,0.00,weatherlink.com 1.10,2013-02-20 20:06:00,
2013-02-20 13:18:00,21.4,18.0,29.66,North,360,0.0,-999.0,85,-99.99,,,0.00,weatherlink.com 1.10,2013-02-20 20:18:00,
2013-02-20 13:32:00,21.7,18.0,29.65,NNE,17,0.0,-999.0,85,-99.99,,,0.00,weatherlink.com 1.10,2013-02-20 20:32:00,
2013-02-20 13:47:00,22.2,18.0,29.65,NNE,14,0.0,-999.0,82,-99.99,,,0.00,weatherlink.com 1.10,2013-02-20 20:47:00,
2013-02-20 13:59:00,22.4,18.0,29.65,North,355,0.0,-999.0,82,-99.99,,,0.00,weatherlink.com 1.10,2013-02-20 20:59:00,
2013-02-20 14:15:00,22.6,18.0,29.66,North,355,0.0,-999.0,81,-99.99,,,0.00,weatherlink.com 1.10,2013-02-20 21:15:00,
2013-02-20 14:30:00,22.4,18.0,29.66,North,355,0.0,-999.0,83,-99.99,,,0.00,weatherlink.com 1.10,2013-02-20 21:30:00,
2013-02-20 14:44:00,22.3,18.0,29.66,North,355,0.0,-999.0,84,-99.99,,,0.00,weatherlink.com 1.10,2013-02-20 21:44:00,
2013-02-20 14:59:00,22.1,18.0,29.66,North,355,0.0,-999.0,85,-99.99,,,0.00,weatherlink.com 1.10,2013-02-20 21:59:00,
2013-02-20 15:15:00,23.0,19.0,29.66,North,355,0.0,-999.0,85,-99.99,,,0.00,weatherlink.com 1.10,2013-02-20 22:15:00,
2013-02-20 15:31:00,24.4,20.0,29.65,North,355,0.0,-999.0,83,-99.99,,,0.00,weatherlink.com 1.10,2013-02-20 22:31:00,
2013-02-20 15:46:00,25.1,19.0,29.65,North,355,0.0,-999.0,79,-99.99,,,0.00,weatherlink.com 1.10,2013-02-20 22:46:00,
2013-02-20 16:01:00,25.1,19.0,29.65,North,355,0.0,-999.0,79,-99.99,,,0.00,weatherlink.com 1.10,2013-02-20 23:01:00,
2013-02-20 16:14:00,25.5,19.0,29.65,North,355,0.0,-999.0,77,-99.99,,,0.00,weatherlink.com 1.10,2013-02-20 23:14:00,
2013-02-20 16:30:00,25.3,18.0,29.65,North,355,0.0,-999.0,75,-99.99,,,0.00,weatherlink.com 1.10,2013-02-20 23:30:00,
2013-02-20 16:45:00,24.1,18.0,29.65,North,355,0.0,-999.0,76,-99.99,,,0.00,weatherlink.com 1.10,2013-02-20 23:45:00,
2013-02-20 17:00:00,23.8,18.0,29.65,North,355,0.0,-999.0,77,-99.99,,,0.00,weatherlink.com 1.10,2013-02-21 00:00:00,
2013-02-20 17:17:00,23.3,17.0,29.66,North,355,0.0,-999.0,76,-99.99,,,0.00,weatherlink.com 1.10,2013-02-21 00:17:00,
2013-02-20 17:31:00,21.8,16.0,29.66,North,355,0.0,-999.0,77,-99.99,,,0.00,weatherlink.com 1.10,2013-02-21 00:31:00,
2013-02-20 17:45:00,20.6,15.0,29.66,North,355,0.0,-999.0,78,-99.99,,,0.00,weatherlink.com 1.10,2013-02-21 00:45:00,
2013-02-20 18:00:00,19.1,14.0,29.67,North,355,0.0,-999.0,81,-99.99,,,0.00,weatherlink.com 1.10,2013-02-21 01:00:00,
2013-02-20 18:16:00,17.3,13.0,29.67,North,355,0.0,-999.0,82,-99.99,,,0.00,weatherlink.com 1.10,2013-02-21 01:16:00,
2013-02-20 19:02:00,12.9,9.0,29.68,North,355,0.0,-999.0,85,-99.99,,,0.00,weatherlink.com 1.10,2013-02-21 02:02:00,
2013-02-20 19:32:00,11.9,9.0,29.69,North,355,0.0,-999.0,87,-99.99,,,0.00,weatherlink.com 1.10,2013-02-21 02:32:00,
2013-02-20 19:46:00,11.4,8.0,29.69,North,355,0.0,-999.0,87,-99.99,,,0.00,weatherlink.com 1.10,2013-02-21 02:46:00,
2013-02-20 20:00:00,10.8,8.0,29.69,North,355,0.0,-999.0,87,-99.99,,,0.00,weatherlink.com 1.10,2013-02-21 03:00:00,
2013-02-20 20:14:00,10.3,7.0,29.69,North,355,0.0,-999.0,87,-99.99,,,0.00,weatherlink.com 1.10,2013-02-21 03:14:00,
2013-02-20 20:30:00,9.8,7.0,29.69,North,355,0.0,-999.0,87,-99.99,,,0.00,weatherlink.com 1.10,2013-02-21 03:30:00,
2013-02-20 20:44:00,9.9,8.0,29.69,North,360,0.0,-999.0,90,-99.99,,,0.00,weatherlink.com 1.10,2013-02-21 03:44:00,
2013-02-20 21:01:00,13.2,11.0,29.69,SW,228,0.0,-999.0,89,-99.99,,,0.00,weatherlink.com 1.10,2013-02-21 04:01:00,
2013-02-20 21:17:00,14.2,10.0,29.70,SSW,205,1.0,-999.0,84,-99.99,,,0.00,weatherlink.com 1.10,2013-02-21 04:17:00,
2013-02-20 21:31:00,14.4,10.0,29.70,SSW,210,0.0,-999.0,82,-99.99,,,0.00,weatherlink.com 1.10,2013-02-21 04:31:00,
2013-02-20 21:45:00,14.3,10.0,29.70,SSW,210,1.0,-999.0,83,-99.99,,,0.00,weatherlink.com 1.10,2013-02-21 04:45:00,
2013-02-20 22:01:00,14.1,10.0,29.70,South,175,0.0,-999.0,84,-99.99,,,0.00,weatherlink.com 1.10,2013-02-21 05:01:00,
2013-02-20 22:18:00,13.9,10.0,29.71,South,175,0.0,-999.0,84,-99.99,,,0.00,weatherlink.com 1.10,2013-02-21 05:18:00,
2013-02-20 22:30:00,14.0,10.0,29.71,South,175,0.0,-999.0,84,-99.99,,,0.00,weatherlink.com 1.10,2013-02-21 05:30:00,
2013-02-20 22:48:00,14.2,10.0,29.71,South,175,0.0,-999.0,83,-99.99,,,0.00,weatherlink.com 1.10,2013-02-21 05:48:00,
2013-02-20 23:04:00,14.3,10.0,29.71,South,175,0.0,-999.0,83,-99.99,,,0.00,weatherlink.com 1.10,2013-02-21 06:04:00,
2013-02-20 23:17:00,14.3,10.0,29.70,South,175,0.0,-999.0,84,-99.99,,,0.00,weatherlink.com 1.10,2013-02-21 06:17:00,
2013-02-20 23:37:00,13.8,10.0,29.70,South,175,0.0,-999.0,84,-99.99,,,0.00,weatherlink.com 1.10,2013-02-21 06:37:00,
2013-02-20 23:53:00,13.3,10.0,29.70,South,175,0.0,-999.0,85,-99.99,,,0.00,weatherlink.com 1.10,2013-02-21 06:53:00,